Weather History for Bigfork, MN

Change the Weather History Date:

Tuesday, April 30, 2013

  Actual Average (KGPZ) Record (KGPZ)
Temperature  
Mean Temperature 50 °F -  
Max Temperature 59 °F 60 °F 86 °F (1952)
Min Temperature 41 °F 35 °F 19 °F (1966)
Degree Days  
Heating Degree Days 14    
Moisture  
Dew Point 38 °F    
Average Humidity 66    
Maximum Humidity 94    
Minimum Humidity 33    
Precipitation  
Precipitation 0.20 in - - ()
Sea Level Pressure  
Sea Level Pressure 29.55 in    
Wind  
Wind Speed 11 mph (SSW)    
Max Wind Speed 26 mph    
Max Gust Speed 39 mph    
Visibility 9 miles    
Events Rain , Thunderstorm    
Averages and records for this station are not official NWS values.
T = Trace of Precipitation, MM = Missing Value Source: NWS Daily Summary

Daily Weather History Graph

Daily Weather History Graph

Search for Another Location

Airport:

Trip Planner

Search our weather history database for the weather conditions in past years. The results will help you decide how hot, cold, wet, or windy it might be!

Date:

Astronomy

Apr. 30, 2013 Rise Set
Actual Time 5:58 AM CDT 8:26 PM CDT
Civil Twilight 5:23 AM CDT 9:00 PM CDT
Nautical Twilight 4:40 AM CDT 9:44 PM CDT
Astronomical Twilight 3:50 AM CDT 10:34 PM CDT
Moon 12:54 AM CDT (4/30) 10:23 AM CDT (4/30)
Length of Visible Light 15h 37m
Length of Day
14h 28m
Waning Gibbous, 70% of the Moon is Illuminated
Apr 30
Waning Gibbous
May 2
Last Quarter
May 9
New
May 17
First Quarter
May 24
Full

Hourly Weather History & Observations

Time (CDT) Temp. Windchill Dew Point Humidity Pressure Visibility Wind Dir Wind Speed Gust Speed Precip Events Conditions
12:14 AM 48.2 °F - 30.2 °F 50% 29.58 in 10.0 mi ESE 6.9 mph - N/A   Clear
12:33 AM 48.2 °F - 30.2 °F 50% 29.57 in 10.0 mi ESE 8.1 mph - N/A   Clear
12:53 AM 48.2 °F - 33.8 °F 58% 29.57 in 10.0 mi ESE 6.9 mph - N/A   Scattered Clouds
1:13 AM 48.2 °F - 33.8 °F 58% 29.56 in 10.0 mi ESE 6.9 mph - N/A   Mostly Cloudy
1:33 AM 48.2 °F - 33.8 °F 58% 29.54 in 10.0 mi ESE 5.8 mph - N/A   Clear
1:53 AM 48.2 °F - 33.8 °F 58% 29.53 in 10.0 mi East 5.8 mph - N/A   Clear
2:13 AM 48.2 °F - 35.6 °F 62% 29.51 in 10.0 mi East 6.9 mph - N/A   Clear
2:33 AM 46.4 °F 42.4 °F 35.6 °F 66% 29.51 in 10.0 mi SE 8.1 mph - N/A   Clear
2:53 AM 46.4 °F 42.9 °F 37.4 °F 71% 29.49 in 10.0 mi ESE 6.9 mph - N/A   Clear
3:13 AM 46.4 °F 42.4 °F 37.4 °F 71% 29.47 in 10.0 mi ESE 8.1 mph - N/A   Clear
3:33 AM 46.4 °F 42.4 °F 39.2 °F 76% 29.46 in 10.0 mi ESE 8.1 mph - N/A Rain , Thunderstorm Light Thunderstorms and Rain
3:53 AM 46.4 °F 45.2 °F 39.2 °F 76% 29.48 in 10.0 mi SE 3.5 mph - N/A Rain Heavy Rain
4:13 AM 46.4 °F - 41.0 °F 81% 29.47 in 4.0 mi Calm Calm - 0.05 in Rain , Thunderstorm Heavy Thunderstorms and Rain
4:33 AM 44.6 °F 40.7 °F 42.8 °F 93% 29.45 in 10.0 mi SE 6.9 mph - 0.19 in Rain Rain
4:53 AM 46.4 °F 41.5 °F 44.6 °F 93% 29.43 in 7.0 mi ESE 10.4 mph - N/A Rain , Thunderstorm Light Thunderstorms and Rain
5:13 AM 46.4 °F 42.4 °F 42.8 °F 87% 29.40 in 7.0 mi East 8.1 mph - N/A Thunderstorm Overcast
5:33 AM 46.4 °F 45.2 °F 42.8 °F 87% 29.39 in 7.0 mi ENE 3.5 mph - 0.01 in Rain Light Rain
5:53 AM 46.4 °F 41.5 °F 44.6 °F 93% 29.34 in 5.0 mi ESE 10.4 mph - N/A Rain Light Rain
6:13 AM 46.4 °F 42.4 °F 44.6 °F 93% 29.33 in 4.0 mi ESE 8.1 mph - N/A   Mostly Cloudy
6:33 AM 46.4 °F 41.5 °F 44.6 °F 93% 29.31 in 3.0 mi ESE 10.4 mph - N/A Rain Light Rain
6:53 AM 46.4 °F 44.3 °F 44.6 °F 93% 29.31 in 4.0 mi SE 4.6 mph - N/A   Mostly Cloudy
7:13 AM 48.2 °F - 46.4 °F 93% 29.32 in 4.0 mi WSW 3.5 mph - N/A   Mostly Cloudy
7:33 AM 48.2 °F - 46.4 °F 93% 29.33 in 5.0 mi SW 10.4 mph - N/A   Mostly Cloudy
7:53 AM 48.2 °F - 46.4 °F 93% 29.31 in 4.0 mi SSE 6.9 mph - N/A   Mostly Cloudy
8:13 AM 48.2 °F - 46.4 °F 93% 29.31 in 4.0 mi South 10.4 mph - N/A   Mostly Cloudy
8:33 AM 50.0 °F - 48.2 °F 94% 29.30 in 5.0 mi SSE 12.7 mph 24.2 mph N/A   Mostly Cloudy
8:53 AM 50.0 °F - 46.4 °F 87% 29.30 in 5.0 mi SSE 12.7 mph 19.6 mph N/A   Overcast
9:13 AM 48.2 °F - 46.4 °F 93% 29.30 in 4.0 mi South 10.4 mph 19.6 mph N/A   Overcast
9:33 AM 48.2 °F - 46.4 °F 93% 29.31 in 3.0 mi South 10.4 mph - N/A   Overcast
9:53 AM 48.2 °F - 46.4 °F 93% 29.32 in 5.0 mi SW 16.1 mph 23.0 mph N/A   Overcast
10:13 AM 50.0 °F - 46.4 °F 87% 29.34 in 7.0 mi SW 21.9 mph 31.1 mph N/A   Overcast
10:33 AM 48.2 °F - 44.6 °F 87% 29.38 in 10.0 mi WSW 17.3 mph 35.7 mph N/A   Overcast
10:53 AM 50.0 °F - 42.8 °F 76% 29.41 in 10.0 mi WSW 20.7 mph 28.8 mph N/A   Mostly Cloudy
11:13 AM 51.8 °F - 42.8 °F 71% 29.43 in 10.0 mi WSW 12.7 mph 21.9 mph N/A   Scattered Clouds
11:33 AM 51.8 °F - 42.8 °F 71% 29.44 in 10.0 mi WSW 15.0 mph 33.4 mph N/A   Scattered Clouds
11:53 AM 51.8 °F - 42.8 °F 71% 29.45 in 10.0 mi West 20.7 mph 29.9 mph N/A   Scattered Clouds
12:13 PM 53.6 °F - 42.8 °F 67% 29.46 in 10.0 mi West 21.9 mph 33.4 mph N/A   Scattered Clouds
12:33 PM 53.6 °F - 42.8 °F 67% 29.48 in 10.0 mi WSW 19.6 mph 29.9 mph N/A   Scattered Clouds
12:53 PM 53.6 °F - 42.8 °F 67% 29.49 in 10.0 mi SW 20.7 mph 24.2 mph N/A   Scattered Clouds
1:13 PM 55.4 °F - 42.8 °F 63% 29.50 in 10.0 mi SW 20.7 mph 25.3 mph N/A   Clear
1:33 PM 55.4 °F - 41.0 °F 58% 29.52 in 10.0 mi WSW 21.9 mph 31.1 mph N/A   Scattered Clouds
1:53 PM 57.2 °F - 39.2 °F 51% 29.53 in 10.0 mi SW 24.2 mph 28.8 mph N/A   Scattered Clouds
2:13 PM 57.2 °F - 37.4 °F 48% 29.53 in 10.0 mi SW 21.9 mph 28.8 mph N/A   Clear
2:33 PM 57.2 °F - 32.0 °F 38% 29.54 in 10.0 mi WSW 20.7 mph 32.2 mph N/A   Clear
2:53 PM 59.0 °F - 30.2 °F 34% 29.56 in 10.0 mi SW 21.9 mph 29.9 mph N/A   Clear
3:13 PM 57.2 °F - 28.4 °F 33% 29.57 in 10.0 mi SW 26.5 mph 39.1 mph N/A   Clear
3:33 PM 57.2 °F - 32.0 °F 38% 29.59 in 10.0 mi SW 23.0 mph 35.7 mph N/A   Clear
3:53 PM 57.2 °F - 33.8 °F 41% 29.60 in 10.0 mi WSW 17.3 mph 34.5 mph N/A   Clear
4:13 PM 57.2 °F - 33.8 °F 41% 29.61 in 10.0 mi WSW 20.7 mph 29.9 mph N/A   Scattered Clouds
4:33 PM 57.2 °F - 33.8 °F 41% 29.63 in 10.0 mi WSW 16.1 mph 23.0 mph N/A   Scattered Clouds
4:53 PM 57.2 °F - 33.8 °F 41% 29.64 in 10.0 mi SW 23.0 mph 28.8 mph N/A   Clear
5:13 PM 57.2 °F - 33.8 °F 41% 29.66 in 10.0 mi WSW 16.1 mph 23.0 mph N/A   Scattered Clouds
5:33 PM 57.2 °F - 32.0 °F 38% 29.68 in 10.0 mi WSW 13.8 mph 25.3 mph N/A   Scattered Clouds
5:53 PM 57.2 °F - 33.8 °F 41% 29.70 in 10.0 mi WSW 12.7 mph 23.0 mph N/A   Clear
6:13 PM 55.4 °F - 33.8 °F 44% 29.71 in 10.0 mi SW 11.5 mph 25.3 mph N/A   Clear
6:33 PM 55.4 °F - 33.8 °F 44% 29.72 in 10.0 mi SW 18.4 mph 24.2 mph N/A   Clear
6:53 PM 53.6 °F - 33.8 °F 47% 29.74 in 10.0 mi WSW 13.8 mph 19.6 mph N/A   Clear
7:13 PM 53.6 °F - 33.8 °F 47% 29.74 in 10.0 mi WSW 12.7 mph 17.3 mph N/A   Clear
7:33 PM 51.8 °F - 35.6 °F 54% 29.76 in 10.0 mi WSW 13.8 mph 23.0 mph N/A   Clear
7:53 PM 51.8 °F - 33.8 °F 50% 29.79 in 10.0 mi West 13.8 mph 24.2 mph N/A   Clear
8:13 PM 50.0 °F - 33.8 °F 54% 29.80 in 10.0 mi WSW 10.4 mph 16.1 mph N/A   Clear
8:33 PM 48.2 °F - 33.8 °F 58% 29.81 in 10.0 mi WSW 13.8 mph 18.4 mph N/A   Clear
8:53 PM 48.2 °F - 33.8 °F 58% 29.82 in 10.0 mi WSW 12.7 mph 18.4 mph N/A   Clear
9:13 PM 48.2 °F - 33.8 °F 58% 29.84 in 10.0 mi WSW 12.7 mph 19.6 mph N/A   Clear
9:33 PM 46.4 °F 40.1 °F 32.0 °F 57% 29.85 in 10.0 mi WSW 15.0 mph 19.6 mph N/A   Clear
9:53 PM 46.4 °F 40.4 °F 32.0 °F 57% 29.85 in 10.0 mi WSW 13.8 mph 18.4 mph N/A   Clear
10:33 PM 44.6 °F 39.7 °F 32.0 °F 61% 29.87 in 10.0 mi West 9.2 mph - N/A   Mostly Cloudy
10:53 PM 44.6 °F 38.8 °F 32.0 °F 61% 29.88 in 10.0 mi West 11.5 mph 20.7 mph N/A   Mostly Cloudy
11:13 PM 42.8 °F 37.5 °F 32.0 °F 66% 29.90 in 10.0 mi West 9.2 mph 17.3 mph N/A   Scattered Clouds
11:33 PM 42.8 °F 37.0 °F 30.2 °F 61% 29.90 in 10.0 mi West 10.4 mph 21.9 mph N/A   Overcast
11:53 PM 41.0 °F 34.3 °F 30.2 °F 65% 29.92 in 10.0 mi WSW 11.5 mph 19.6 mph N/A   Mostly Cloudy